STARLINK-33576 (62775 NORAD) Tracking and Keplerian Element Data

This shows tracking and keplerian element data for the satellite.

Feedback or suggestion? Click here.




ElementValue
Catalog62775
NameSTARLINK-33576
Epoch Orbit332
Epoch Day35.16668981
Epoch Year2025
RAAN19.0573
Inclination53.1598
Eccentricity0.0001254
Argument of Perigee81.9152
Mean Anonmoly97.8003
Mean Motion15.78442109
Decay Rate-0.01119607
L11 62775U 25015T 25035.16668981 -.01119607 00000+0 -70743-2 0 9999
L22 62775 53.1598 19.0573 0001254 81.9152 97.8003 15.78442109 3329



Live tracking and technical data element details for STARLINK-33576 (NORAD 62775). STARLINK-33576 can be tracked NOW for your location showing map with azimuth and elevation plus other details from your city location.







IsCatalogInMostPopularTable: catalog: 62775, numindb: 2
Update: records affected: 1



GetName: 62775 STARLINK-33576

Hit Count: updated at: Sun, 09 Feb 2025 14:13:08 GMT